{"data":{"norad_id":43689,"epoch":"2026-09-20T03:52:42.030048Z","epoch_age_seconds":43575,"freshness":"FRESH","line1":"1 43689U 18087A   26263.16159757  .00000035  00000+0  36226-4 0  9994","line2":"2 43689  98.7333 321.0624 0000648  55.8960 304.2279 14.21473530408328","mean_motion":14.2147353,"eccentricity":6.48e-5,"inclination_deg":98.7333,"raan_deg":321.0624,"arg_perigee_deg":55.896,"mean_anomaly_deg":304.2279,"bstar":3.6226e-5,"rev_number":40832,"period_min":101.30332852558,"perigee_km":819.90727306633,"apogee_km":820.84020005779,"semimajor_km":7198.5107365621,"source":"CELESTRAK","updated_at":"2026-09-20T09:00:33.220713Z"}}